Wind_Speed
37 37 38 39 40 40 41 42 42 43 44 44 44 45 45 46 47 47 49 50 51 52 52 53 54 54 54 55 55 56 56 56 56 55 55 54 54 54 54 53 53 52 52
38 39 40 40 41 41 42 43 43 44 45 45 46 46 47 47 48 48 49 50 51 52 54 54 55 56 56 56 57 57 57 57 57 57 58 57 55 55 55 55 54 54 54
38 40 41 41 41 42 43 44 45 45 46 47 47 47 48 49 49 49 49 50 51 53 54 55 56 57 57 58 58 59 59 59 59 59 60 60 59 58 57 56 56 55 55
39 40 41 42 42 43 44 45 45 46 47 48 48 49 49 49 50 50 51 51 53 54 56 56 57 57 58 59 59 60 61 61 60 60 61 61 60 60 59 58 57 57 56
40 41 42 43 43 44 45 45 46 47 48 48 49 50 50 51 52 52 53 53 54 56 57 57 57 57 58 59 60 61 61 61 60 60 60 60 59 59 60 59 57 56 56
41 42 43 43 44 45 46 46 46 47 48 49 50 51 52 52 53 54 55 55 56 57 57 57 57 58 58 58 58 58 58 59 59 59 59 60 59 59 59 59 58 57 56
43 43 43 43 44 45 46 47 47 47 48 49 50 51 52 53 54 55 56 56 57 57 57 56 56 56 55 55 55 55 55 56 57 57 57 58 57 57 57 56 56 56 54
43 43 43 44 44 45 45 45 46 48 49 50 51 51 52 53 54 55 56 56 56 56 55 55 54 54 54 53 53 53 53 54 53 53 54 54 54 53 53 53 54 54 53
42 43 43 44 44 44 45 45 46 47 48 49 50 51 52 52 54 54 55 55 54 53 52 52 52 52 52 52 52 52 51 51 51 51 51 51 51 50 49 50 51 52 52
41 42 42 43 44 44 44 45 46 47 47 49 49 50 50 51 52 53 53 53 51 50 50 50 50 50 50 50 50 50 49 49 48 48 48 48 47 47 47 47 48 48 48
41 41 42 43 43 44 45 45 46 46 47 47 48 48 49 50 50 50 49 49 48 48 48 47 48 49 49 49 48 47 46 46 46 47 46 46 45 45 45 45 46 46 46
42 42 42 41 42 43 44 44 45 46 46 47 47 47 47 47 47 46 46 46 46 46 46 46 47 47 47 47 46 45 45 45 45 45 45 45 46 45 45 45 45 45 45
42 42 42 42 42 42 42 43 44 44 45 46 46 45 45 44 44 43 44 45 45 44 44 44 44 45 45 45 44 43 43 42 42 42 43 43 43 43 43 43 42 42 42
41 41 41 41 41 41 41 42 43 43 43 44 44 44 43 42 41 41 43 43 43 43 43 43 43 43 42 41 41 40 41 41 40 41 42 43 43 42 42 41 39 39 39
40 40 41 40 40 40 40 41 42 43 43 42 42 41 41 41 41 40 40 40 40 41 41 41 42 40 39 38 39 39 39 39 39 39 40 40 40 39 38 38 37 36 36
40 40 40 40 40 41 41 41 41 41 41 41 40 40 41 40 39 39 38 39 39 39 39 40 39 38 37 37 37 37 37 37 37 36 36 35 36 36 35 35 35 35 34
40 40 39 39 40 40 40 40 40 40 40 40 40 40 40 40 39 39 39 40 38 37 38 38 37 36 35 35 36 36 35 34 33 33 33 33 33 33 33 33 32 32 32
40 41 41 41 40 40 39 39 39 39 39 39 39 40 40 39 38 38 38 38 37 36 36 35 34 32 32 32 32 33 33 32 31 31 32 32 31 30 31 31 30 29 31
40 41 41 41 40 39 38 38 38 38 38 37 38 38 38 37 36 35 35 35 35 35 33 32 32 31 30 30 31 31 30 30 29 29 29 30 28 28 29 29 29 29 30
39 39 39 38 38 37 37 37 37 37 37 38 38 38 37 36 35 35 35 34 34 33 31 30 30 30 30 29 29 29 29 28 28 28 28 28 28 28 28 29 30 30 30
37 37 37 37 37 37 36 36 36 36 37 37 37 37 37 36 35 35 35 34 32 31 30 30 29 29 28 29 28 28 28 28 28 28 28 28 28 28 28 29 30 30 29
36 36 36 36 37 37 37 36 36 36 36 37 37 37 37 37 36 35 33 32 31 30 30 29 28 28 28 27 27 27 27 28 28 27 27 27 28 28 29 29 29 28 27
35 35 35 35 35 36 35 35 34 35 35 35 35 36 36 35 34 33 31 31 30 29 29 28 26 26 26 26 26 26 27 27 27 27 27 27 28 28 27 27 27 27 25
35 34 34 33 33 33 33 33 33 33 33 33 33 33 33 32 31 30 30 29 28 27 26 26 25 24 25 25 26 26 26 26 26 27 27 27 26 26 25 25 26 26 25
33 33 32 32 32 31 31 32 32 32 31 31 30 29 29 28 28 28 28 27 26 26 25 24 24 24 23 24 24 24 25 25 25 24 24 24 23 24 24 24 24 24 24
31 31 30 30 30 30 30 30 30 30 30 29 28 27 26 26 26 26 26 25 25 24 24 23 23 22 21 21 22 22 22 22 22 21 21 22 22 22 21 21 21 21 21
Wind_Direction
261 261 262 262 262 262 262 263 264 264 265 265 266 266 267 268 269 270 270 270 271 271 271 271 271 271 270 270 269 269 268 267 266 266 265 266 266 266 266 267 267 267 267
263 263 263 264 263 263 264 265 265 266 267 267 267 268 268 269 270 271 271 271 272 273 273 272 272 272 271 270 269 269 268 268 267 266 266 265 265 266 266 266 267 267 267
264 265 265 265 263 263 264 265 266 267 268 268 268 269 270 270 270 271 272 272 272 273 274 274 273 272 271 271 270 270 269 268 267 267 267 266 265 265 265 265 265 266 267
265 266 266 266 264 265 265 267 267 268 268 269 270 270 270 270 271 272 272 273 274 275 276 276 276 274 273 272 271 270 269 268 267 266 266 266 266 266 265 264 264 265 265
266 267 267 266 266 266 267 267 268 269 269 270 271 271 271 271 272 272 273 274 275 275 276 276 276 275 274 273 271 270 269 268 267 266 265 266 266 266 267 266 265 264 265
268 268 268 267 267 268 268 269 269 269 270 271 272 272 272 272 273 273 273 274 276 276 276 276 276 276 275 274 272 270 269 268 267 266 266 265 265 265 266 267 266 265 264
269 269 267 268 268 268 269 270 270 270 271 271 272 273 274 274 274 274 275 275 276 276 276 275 275 275 275 273 272 271 270 268 267 267 266 266 266 265 265 266 266 264 263
269 269 269 268 268 270 271 271 270 270 271 271 272 274 275 275 275 275 276 276 277 277 277 276 275 275 274 273 272 271 270 269 268 267 267 266 265 264 264 266 267 265 264
270 270 271 270 270 271 271 271 271 271 272 272 273 275 276 276 276 276 276 276 276 276 276 276 275 274 273 272 271 271 270 269 267 266 266 265 264 264 265 268 267 267 265
271 271 270 271 271 270 271 272 272 272 273 274 275 276 277 277 277 277 276 275 275 275 276 276 275 274 273 271 271 271 270 269 266 265 264 263 264 263 266 268 267 266 265
272 272 272 272 272 271 272 272 272 273 274 275 276 277 278 278 278 278 277 275 275 275 276 275 274 273 273 272 271 270 269 267 265 264 264 263 263 264 266 267 267 266 265
272 272 272 271 272 272 272 272 273 274 275 276 277 278 278 278 277 277 275 274 275 277 277 276 274 273 273 271 270 268 267 266 265 263 263 262 262 265 267 267 267 265 263
270 271 271 272 272 272 272 272 274 275 275 277 278 278 278 278 277 276 275 275 275 276 277 276 275 274 273 271 268 267 267 266 266 264 263 261 262 265 266 264 264 264 263
270 270 270 271 272 272 273 273 274 275 276 278 278 277 278 278 277 276 276 276 276 276 277 276 275 274 272 269 267 268 267 267 267 267 264 262 263 266 264 262 263 263 261
270 269 270 270 271 272 272 274 274 275 277 277 277 276 277 276 276 276 277 277 278 278 278 276 275 273 271 269 268 268 267 266 267 267 265 264 265 266 263 261 261 262 260
270 270 271 271 272 272 273 274 274 275 276 275 275 276 276 276 276 277 277 278 279 280 278 277 275 272 270 269 268 269 269 268 267 266 263 262 263 264 263 261 261 260 259
269 270 272 272 273 273 273 273 275 276 276 275 275 275 277 278 278 278 278 279 280 280 279 277 274 271 270 269 268 269 270 269 267 264 262 261 261 263 262 261 261 259 260
269 270 271 272 273 273 273 274 275 275 275 275 276 277 279 278 277 277 278 278 278 279 279 276 274 271 269 268 269 268 268 268 267 263 262 261 264 264 261 258 258 258 259
268 270 271 271 272 273 273 274 274 273 273 274 277 278 278 276 276 277 279 279 277 278 277 275 273 269 267 267 267 267 267 267 265 263 262 261 263 263 260 257 256 257 258
268 269 270 271 272 273 273 273 273 273 273 275 277 277 277 277 276 277 278 277 277 275 274 274 272 269 266 266 266 266 266 266 264 262 261 261 262 262 260 257 257 259 260
267 268 269 271 272 273 273 274 273 274 275 275 276 277 277 277 277 277 277 277 276 274 273 273 271 270 268 265 265 266 266 264 262 260 259 258 259 260 259 259 259 260 260
267 268 269 270 272 272 273 274 274 274 274 275 276 276 276 276 276 276 276 274 273 272 272 272 271 269 269 267 266 267 267 266 263 259 258 257 259 261 261 260 260 260 261
269 270 270 271 272 273 272 272 273 274 274 275 275 276 275 275 275 275 274 272 272 270 270 271 269 267 267 268 270 270 268 266 262 258 259 260 260 262 262 260 258 259 260
271 272 272 273 274 273 272 273 273 275 276 277 276 274 274 273 272 273 273 272 271 270 270 269 266 268 267 267 269 269 268 266 264 263 261 258 258 259 259 258 256 258 260
270 271 272 272 272 271 272 273 274 274 276 277 276 275 273 271 270 270 271 271 270 270 268 266 266 268 265 265 267 267 266 264 263 261 259 256 256 258 258 256 257 257 259
269 269 270 271 271 271 271 272 273 274 275 275 274 274 272 271 271 270 270 271 270 268 266 265 265 265 264 263 264 263 263 263 263 260 258 256 256 257 256 255 254 255 255
Height
5698 5699 5700 5701 5703 5705 5707 5708 5709 5710 5711 5711 5712 5713 5714 5714 5715 5715 5715 5715 5714 5714 5714 5714 5714 5713 5713 5714 5714 5714 5715 5716 5716 5717 5719 5721 5723 5724 5725 5726 5727 5728 5729
5689 5690 5690 5691 5693 5695 5696 5698 5699 5699 5700 5701 5701 5702 5702 5703 5703 5703 5702 5702 5701 5700 5700 5699 5699 5699 5699 5699 5699 5699 5700 5701 5701 5702 5703 5706 5710 5710 5711 5712 5713 5714 5715
5679 5680 5680 5681 5682 5684 5686 5687 5688 5688 5689 5689 5689 5689 5690 5690 5690 5690 5690 5689 5688 5687 5686 5684 5683 5683 5683 5684 5683 5683 5684 5685 5686 5686 5686 5689 5692 5695 5698 5698 5699 5699 5700
5670 5670 5670 5671 5672 5673 5674 5675 5676 5676 5677 5677 5677 5677 5677 5677 5678 5677 5677 5676 5674 5673 5671 5670 5668 5668 5668 5668 5667 5667 5667 5668 5670 5670 5670 5672 5674 5676 5680 5684 5684 5685 5686
5660 5660 5660 5661 5661 5662 5663 5663 5664 5664 5664 5664 5664 5664 5664 5664 5664 5663 5663 5662 5660 5658 5656 5655 5653 5653 5652 5651 5651 5650 5650 5650 5652 5654 5655 5655 5657 5658 5660 5665 5669 5669 5670
5650 5650 5650 5650 5650 5650 5651 5651 5651 5652 5652 5651 5651 5650 5650 5649 5649 5648 5648 5647 5645 5643 5642 5640 5638 5637 5636 5635 5634 5633 5633 5634 5635 5637 5638 5639 5640 5643 5643 5646 5650 5653 5656
5639 5639 5639 5639 5639 5639 5639 5638 5638 5639 5639 5638 5637 5636 5635 5634 5633 5633 5632 5631 5630 5628 5626 5624 5623 5621 5620 5619 5618 5617 5617 5618 5619 5621 5622 5623 5625 5626 5627 5629 5632 5635 5639
5627 5627 5627 5627 5627 5627 5626 5626 5626 5626 5626 5625 5624 5623 5621 5620 5619 5617 5616 5615 5613 5612 5610 5609 5607 5606 5605 5604 5603 5603 5603 5603 5604 5606 5607 5608 5610 5611 5612 5613 5614 5617 5622
5616 5616 5616 5615 5615 5615 5614 5614 5614 5614 5613 5612 5610 5609 5607 5605 5604 5602 5600 5599 5598 5596 5595 5593 5592 5591 5589 5589 5588 5588 5589 5589 5590 5592 5593 5594 5596 5597 5598 5598 5600 5602 5605
5604 5604 5604 5603 5603 5603 5603 5603 5602 5601 5600 5599 5597 5595 5593 5591 5589 5587 5585 5584 5583 5582 5581 5579 5578 5576 5575 5574 5574 5574 5575 5575 5577 5578 5580 5581 5583 5584 5585 5586 5587 5588 5590
5593 5593 5593 5592 5592 5591 5591 5590 5590 5589 5588 5586 5584 5582 5580 5577 5575 5573 5571 5570 5569 5569 5567 5566 5564 5563 5562 5562 5561 5562 5562 5563 5564 5565 5567 5569 5570 5572 5573 5574 5575 5576 5578
5582 5582 5582 5581 5581 5580 5579 5579 5578 5577 5575 5574 5572 5569 5567 5564 5562 5560 5559 5558 5557 5556 5555 5553 5552 5551 5550 5550 5549 5550 5550 5551 5552 5553 5555 5557 5558 5560 5561 5562 5563 5565 5567
5572 5571 5571 5570 5569 5569 5568 5567 5566 5564 5563 5561 5560 5558 5555 5553 5551 5549 5548 5547 5546 5545 5544 5541 5540 5539 5539 5538 5538 5539 5539 5540 5541 5542 5544 5546 5547 5549 5550 5551 5552 5554 5556
5561 5561 5560 5560 5559 5558 5557 5556 5554 5553 5551 5550 5548 5546 5544 5542 5540 5539 5538 5536 5535 5534 5532 5531 5530 5529 5528 5528 5528 5528 5529 5530 5531 5532 5533 5535 5536 5537 5538 5540 5542 5544 5546
5551 5550 5550 5550 5549 5548 5546 5545 5544 5542 5541 5539 5537 5536 5534 5532 5530 5529 5527 5526 5524 5523 5521 5520 5519 5518 5518 5518 5518 5518 5519 5520 5521 5522 5523 5524 5525 5526 5528 5530 5533 5534 5536
5540 5540 5540 5540 5539 5537 5536 5535 5534 5532 5530 5529 5528 5526 5524 5523 5521 5519 5518 5516 5514 5513 5511 5510 5509 5508 5508 5508 5508 5509 5509 5511 5512 5513 5513 5514 5516 5517 5519 5521 5523 5525 5528
5530 5530 5530 5529 5528 5527 5526 5525 5524 5522 5521 5520 5518 5517 5515 5514 5512 5510 5508 5506 5505 5503 5502 5500 5499 5498 5498 5499 5499 5500 5500 5502 5503 5504 5505 5506 5507 5509 5511 5513 5514 5516 5518
5520 5520 5519 5519 5518 5517 5516 5515 5514 5513 5511 5510 5509 5507 5506 5504 5502 5500 5498 5497 5495 5494 5492 5491 5490 5489 5490 5490 5490 5491 5492 5493 5494 5495 5497 5498 5499 5501 5502 5504 5506 5508 5510
5510 5510 5509 5508 5507 5507 5506 5505 5504 5503 5502 5501 5499 5498 5496 5494 5493 5491 5490 5488 5487 5486 5484 5482 5482 5481 5481 5482 5482 5483 5484 5485 5487 5488 5488 5490 5491 5493 5494 5496 5498 5501 5503
5500 5500 5499 5498 5498 5497 5496 5495 5494 5494 5493 5492 5490 5489 5487 5485 5484 5483 5481 5480 5478 5477 5476 5475 5474 5474 5474 5475 5475 5475 5476 5478 5479 5480 5481 5482 5483 5485 5486 5489 5491 5493 5495
5490 5490 5490 5489 5488 5487 5486 5486 5485 5484 5483 5482 5481 5480 5478 5476 5475 5474 5473 5471 5470 5469 5468 5468 5467 5467 5467 5467 5467 5468 5469 5470 5472 5473 5474 5475 5476 5478 5480 5481 5483 5485 5487
5480 5480 5480 5479 5478 5477 5477 5476 5475 5475 5474 5473 5472 5471 5469 5467 5466 5465 5464 5463 5462 5461 5461 5461 5460 5460 5460 5460 5461 5461 5462 5463 5464 5466 5467 5469 5470 5471 5473 5474 5476 5477 5479
5471 5470 5470 5470 5469 5468 5467 5467 5466 5465 5465 5464 5463 5462 5460 5459 5458 5457 5456 5455 5454 5454 5453 5453 5453 5453 5453 5453 5454 5454 5455 5456 5457 5459 5460 5462 5463 5464 5466 5467 5469 5470 5472
5461 5461 5461 5460 5460 5459 5458 5458 5457 5457 5456 5455 5454 5452 5451 5450 5449 5449 5448 5447 5446 5446 5446 5446 5446 5446 5446 5447 5447 5448 5448 5449 5450 5451 5453 5455 5456 5458 5459 5461 5462 5464 5467
5452 5451 5451 5451 5451 5450 5450 5449 5448 5448 5447 5446 5445 5444 5443 5442 5442 5441 5440 5439 5439 5439 5439 5439 5439 5439 5440 5440 5441 5441 5442 5443 5444 5445 5447 5448 5450 5452 5453 5455 5457 5459 5461
5443 5442 5442 5442 5442 5442 5441 5440 5440 5440 5439 5438 5437 5436 5435 5435 5434 5433 5433 5432 5432 5432 5432 5432 5432 5433 5434 5434 5435 5435 5436 5437 5439 5440 5441 5443 5444 5446 5448 5450 5452 5453 5456